This is the latest recevied weather packets stored in our database for station/object KA2FNK. If no packets are shown the sender has not sent any weather packets the latest 1 day(s).
| Time | Temp. | Humidity | Pressure | Rain* | Wind** | Luminosity | Snow |
|---|---|---|---|---|---|---|---|
| 1777996741 | 7.78° C | 93% | 1012.4 hPa | 1.52 mm | 3.58 m/s, 26° | - | - |
| 1777996440 | 7.78° C | 92% | 1012.4 hPa | 1.27 mm | 2.68 m/s, 42° | - | - |
| 1777996139 | 7.78° C | 91% | 1012.8 hPa | 1.02 mm | 0.45 m/s, 21° | - | - |
| 1777995838 | 8.33° C | 91% | 1012.7 hPa | 0.76 mm | 2.68 m/s, 113° | - | - |
| 1777995537 | 8.33° C | 91% | 1012.8 hPa | 0.51 mm | 0.45 m/s, 45° | - | - |
| 1777995236 | 8.33° C | 91% | 1012.7 hPa | 0.51 mm | 0 m/s | - | - |
| 1777994935 | 8.33° C | 92% | 1012.2 hPa | 0.25 mm | 2.68 m/s, 32° | - | - |
| 1777994634 | 8.33° C | 92% | 1012 hPa | 0.25 mm | 2.24 m/s, 63° | - | - |
| 1777994333 | 8.33° C | 92% | 1012 hPa | 0.25 mm | 1.34 m/s, 39° | - | - |
| 1777994032 | 8.33° C | 93% | 1012 hPa | 0 mm | 0.89 m/s, 358° | - | - |
| 1777993731 | 8.33° C | 94% | 1011.9 hPa | 0 mm | 1.34 m/s, 46° | - | - |
| 1777993430 | 8.33° C | 94% | 1012 hPa | 0.25 mm | 2.24 m/s, 19° | - | - |
| 1777993129 | 8.33° C | 95% | 1012 hPa | 0.51 mm | 2.24 m/s, 15° | - | - |
| 1777992828 | 8.33° C | 95% | 1011.7 hPa | 0.51 mm | 0.45 m/s, 329° | - | - |
| 1777992527 | 8.33° C | 95% | 1011.6 hPa | 0.76 mm | 2.68 m/s, 35° | - | - |
| 1777992226 | 8.33° C | 95% | 1011.9 hPa | 1.02 mm | 2.24 m/s, 21° | - | - |
| 1777991925 | 8.33° C | 95% | 1011.9 hPa | 1.02 mm | 2.24 m/s, 28° | - | - |
| 1777991624 | 8.89° C | 95% | 1011.6 hPa | 1.02 mm | 1.79 m/s, 2° | - | - |
| 1777991323 | 8.89° C | 95% | 1011.8 hPa | 1.02 mm | 1.34 m/s, 47° | - | - |
| 1777991022 | 8.89° C | 95% | 1011.8 hPa | 1.27 mm | 0.89 m/s, 52° | - | - |
| 1777990721 | 8.33° C | 95% | 1012.1 hPa | 1.52 mm | 0.89 m/s, 343° | - | - |
| 1777990420 | 8.89° C | 94% | 1011.8 hPa | 2.29 mm | 1.34 m/s, 40° | - | - |
| 1777990119 | 8.89° C | 94% | 1011.7 hPa | 3.3 mm | 1.79 m/s, 8° | - | - |
| 1777989818 | 8.89° C | 92% | 1011.6 hPa | 3.05 mm | 1.34 m/s, 30° | - | - |
| 1777989517 | 8.89° C | 92% | 1011.8 hPa | 2.79 mm | 0 m/s | - | - |
* Rain latest hour (hover to see other rain measurements)
** Current wind speed in m/s (hover to see current wind gust speed)